Location: *
(51.8167°N, 12.5000°E)
Time: 23:58:19
(UTC+00:00)

Lacrosse 5 - Visible Passes

Search period start: 12 December 2019 00:00
Search period end: 22 December 2019 00:00
Orbit: 715 x 724 km, 57.0° (Epoch: 04 December)

Date Brightness Start Highest point End Pass type
(mag) Time Alt. Az. Time Alt. Az. Time Alt. Az.
12 Dec 4.0 17:40:09 10° S 17:41:13 14° SSE 17:41:13 14° SSE visible
13 Dec 4.0 16:49:38 10° SE 16:50:32 11° SE 16:50:32 11° SE visible
13 Dec 3.8 18:28:01 10° SSW 18:29:46 21° SSW 18:29:46 21° SSW visible
14 Dec 3.0 17:35:31 10° SSW 17:38:59 28° SSE 17:38:59 28° SSE visible
14 Dec 4.5 19:17:26 10° WSW 19:18:13 14° WSW 19:18:13 14° WSW visible
15 Dec 3.4 16:43:35 10° S 16:47:07 19° SE 16:48:09 18° ESE visible
15 Dec 3.0 18:24:19 10° SW 18:27:22 37° SW 18:27:22 37° SW visible
16 Dec 4.0 15:53:08 10° SE 15:54:24 11° ESE 15:55:38 10° ESE visible
16 Dec 2.2 17:31:26 10° SSW 17:36:18 47° SE 17:36:27 47° SE visible
16 Dec 4.2 19:14:10 10° WSW 19:15:41 20° W 19:15:41 20° W visible
17 Dec 2.9 16:38:57 10° SSW 16:43:20 30° SE 16:45:29 22° E visible
17 Dec 2.5 18:20:51 10° WSW 18:24:42 52° WSW 18:24:42 52° WSW visible
18 Dec 3.6 15:47:01 10° S 15:50:31 19° SE 15:54:01 10° E visible
18 Dec 1.8 17:27:43 10° SW 17:32:47 71° SE 17:33:40 57° E visible
18 Dec 4.1 19:10:59 10° W 19:12:53 22° W 19:12:53 22° W visible
19 Dec 2.3 16:34:51 10° SSW 16:39:42 47° SE 16:42:36 23° ENE visible
19 Dec 2.4 18:17:34 10° WSW 18:21:49 55° WNW 18:21:49 55° WNW visible
20 Dec 3.0 15:42:22 10° SSW 15:46:46 30° SE 15:51:10 10° ENE visible
20 Dec 1.8 17:24:15 10° WSW 17:29:22 84° NNW 17:30:42 50° NE visible
20 Dec 4.0 19:07:51 10° W 19:09:54 23° WNW 19:09:54 23° WNW visible
21 Dec 1.9 16:31:07 10° SW 16:36:12 70° SE 16:39:34 21° ENE visible
21 Dec 2.5 18:14:23 10° W 18:18:46 50° NW 18:18:46 50° NW visible
